MST,Max TemperatureF,Mean TemperatureF,Min TemperatureF,Max Dew PointF,MeanDew PointF,Min DewpointF,Max Humidity, Mean Humidity, Min Humidity, Max Sea Level PressureIn, Mean Sea Level PressureIn, Min Sea Level PressureIn, Max VisibilityMiles, Mean VisibilityMiles, Min VisibilityMiles, Max Wind SpeedMPH, Mean Wind SpeedMPH, Max Gust SpeedMPH,PrecipitationIn, CloudCover, Events, WindDirDegrees
2013-1-1,21,14,8,12,5,-2,93,69,42,,,,10,8,1,18,9,29,0.00,5,Snow,309
2013-1-2,21,14,8,10,4,-8,92,69,30,,,,10,8,1,10,4,,0.00,3,Snow,244
2013-1-3,35,22,10,5,-10,-22,48,21,12,,,,10,10,10,9,5,,0.00,0,,246
2013-1-4,44,35,26,0,-9,-33,29,17,4,,,,10,10,10,17,6,,0.00,0,,302
2013-1-5,30,24,19,10,4,-6,63,43,21,,,,10,10,10,16,8,18,0.00,0,,257
2013-1-6,32,28,23,10,1,-6,44,30,21,,,,10,10,10,25,13,36,0.00,1,,248
2013-1-7,32,22,12,19,10,-4,86,58,23,,,,10,10,10,24,7,31,0.00,1,,246
2013-1-8,26,20,14,21,18,12,100,86,74,,,,10,9,0,25,16,37,0.00,3,Fog-Snow,245
2013-1-9,35,26,17,23,17,5,100,71,30,,,,10,9,0,25,13,33,0.00,5,Fog-Snow,232
2013-1-10,32,26,21,23,18,14,100,68,51,,,,10,10,0,16,11,25,0.00,8,Snow,214
2013-1-11,23,9,-5,21,2,-11,100,84,77,,,,10,3,0,26,12,37,0.00,7,Snow,346
2013-1-12,1,-2,-5,-4,-7,-11,92,79,72,,,,10,8,2,12,6,,0.00,7,Snow,319
2013-1-13,1,-4,-9,-6,-9,-15,92,81,66,,,,10,8,3,13,4,17,0.00,6,Snow,347
2013-1-14,8,0,-7,-2,-8,-13,92,72,48,,,,10,10,5,14,4,,0.00,3,,257
2013-1-15,32,19,6,19,11,-2,80,64,51,,,,10,10,7,8,4,,0.07,4,,254
2013-1-16,33,27,21,19,15,10,80,58,44,,,,10,10,10,12,5,,0.00,0,,246
2013-1-17,39,34,28,10,4,-6,47,30,16,,,,10,10,10,10,5,10,0.00,0,,270
2013-1-18,37,32,26,10,5,1,40,33,25,,,,10,10,10,20,11,28,0.00,0,,261
2013-1-19,44,35,26,10,2,-13,47,30,10,,,,10,10,10,17,9,20,0.00,0,,258
2013-1-20,35,30,26,10,5,-6,51,34,20,,,,10,10,10,23,5,28,0.00,0,,248
2013-1-21,35,30,26,12,7,-9,51,36,14,,,,10,10,10,16,7,23,0.00,0,,259
2013-1-22,44,38,32,10,-9,-18,31,13,7,,,,10,10,10,16,8,23,0.00,0,,273
2013-1-23,37,30,23,9,-3,-15,54,25,11,,,,10,10,10,20,10,23,0.00,0,,246
2013-1-24,35,29,23,30,21,5,93,68,34,,,,10,9,2,31,12,46,0.00,3,Snow,256
2013-1-25,33,28,23,23,19,7,80,68,35,,,,10,10,10,26,18,36,0.00,0,,252
2013-1-26,32,30,28,30,27,18,100,87,60,,,,10,9,0,24,11,33,0.00,4,Fog-Snow,244
2013-1-27,32,28,24,30,28,23,100,96,86,,,,10,5,0,24,10,31,0.00,8,Fog-Snow,228
2013-1-28,24,16,8,23,10,-9,100,76,38,,,,10,9,0,16,6,18,0.00,4,Fog-Snow,256
2013-1-29,17,11,5,9,0,-11,92,64,35,,,,10,8,1,21,9,26,0.00,5,Snow,313
2013-1-30,30,19,8,19,9,-6,86,61,34,,,,10,10,5,21,11,37,0.00,2,Snow,265
2013-1-31,30,26,21,19,15,10,86,66,51,,,,10,10,10,23,11,31,0.00,0,,267